Aérodrome :
LOGIN :

S'inscrire | Disclaimer

   EN    FR    IT 

 










Légende :    VFR   VFR Marginal   IFR   IFR Intensif   IFR Très Intensif
Visi : 
Plafond : 
>= 8 km
>= 3000ft
5 à 8 km
1000 à 3000 ft
1500m à 5 km
500 à 1000 ft
800 à 1500m
200 à 500 ft
< 800m
< 200 ft
Symboles :   Orages  Brouillard  Fortes neiges  Fortes précipitations  Vent > 20 kt
SIGMETs :   Divers  Orages  Givrage  Turbulence  Onde Orograph.  Cendres Volcan.






- Altitude de l'aérodrome : 340 ft
- Code IATA : BZI


LTBF - Balikesir

DERNIER METAR :
  • 231950Z 18008KT 160V220 9999 SCT035 BKN100 13/06 Q1015 NOSIG

METARs EXPIRÉS :
  • 231850Z 18008KT 9999 SCT035 BKN100 12/06 Q1016 NOSIG
  • 231750Z VRB02KT 9999 SCT035 BKN100 11/06 Q1016 NOSIG

TAF TAF LTBF
Valide du 23 à 21h jusqu'au 24 à 06h UTC


231940Z 2321/2406 20005KT 9999 SCT035 BKN100
TEMPO 2321/2324 -SHRA



MET'MAP, la Météo Aéronautique d'un coup d'oeil ! - Copyright ORBIFLY Décembre 2007 - Disclaimer

ORBIFLY MET'MAP TEAM :

Programmation & Développement : Alexandra Zaïnal
Sur une idée originale de : Baudouin d'Aumeries
Assistance à la programmation : Marc-Olivier Méhu
Soutien technique & logistique : Manuel Goepfert

Contact : metmap@orbifly.com




SOURCES & CREDITS :

   NOAA